AAL9132 MMMZ-KPHX

Flight info

Callsign AAL9132
Flight time 2h 0m
Altitude 36000
Route UKRIG3 UKRIG UJ33 CUL UT12 VYLLA DCT TUS DCT HOTTT PINNG1
Aircraft A21N/M-SDE3FGHIRWY/LB1

Departure

Time 2026-04-22 15:08
Airport General Rafael Buelna International Airport (MMMZ)

Arrival

Time 2026-04-22 17:08
Airport Phoenix Sky Harbor International Airport (KPHX)
Time Latitude Longitude Altitude Speed Heading
2026-04-22 14:59 23.16552 -106.26917 38 ft 0 kts
2026-04-22 15:00 23.16551 -106.26917 38 ft 0 kts
2026-04-22 15:01 23.16546 -106.26917 38 ft 2 kts
2026-04-22 15:01 23.16531 -106.26917 37 ft 2 kts
2026-04-22 15:01 23.16516 -106.26923 37 ft 2 kts 37°
2026-04-22 15:02 23.16506 -106.26934 37 ft 2 kts 61°
2026-04-22 15:02 23.16501 -106.26949 37 ft 1 kts 86°
2026-04-22 15:02 23.16502 -106.26957 37 ft 1 kts 97°
2026-04-22 15:02 23.16502 -106.26961 37 ft 0 kts 94°
2026-04-22 15:04 23.16502 -106.26959 37 ft 0 kts 94°
2026-04-22 15:05 23.16501 -106.26949 37 ft 1 kts 94°
2026-04-22 15:05 23.16500 -106.26930 37 ft 5 kts 97°
2026-04-22 15:05 23.16410 -106.26851 38 ft 21 kts 179°
2026-04-22 15:05 23.16274 -106.26822 38 ft 19 kts 137°
2026-04-22 15:06 23.16193 -106.26696 39 ft 26 kts 116°
2026-04-22 15:06 23.16145 -106.26381 41 ft 52 kts 97°
2026-04-22 15:06 23.16120 -106.25935 43 ft 67 kts 93°
2026-04-22 15:06 23.16098 -106.25423 43 ft 65 kts 92°
2026-04-22 15:07 23.16091 -106.25187 44 ft 5 kts 216°
2026-04-22 15:07 23.16090 -106.25192 44 ft 3 kts 261°
2026-04-22 15:07 23.16090 -106.25263 44 ft 39 kts 273°
2026-04-22 15:07 23.16120 -106.25861 43 ft 116 kts 273°
2026-04-22 15:08 23.16176 -106.26987 54 ft 175 kts 273°
2026-04-22 15:08 23.16278 -106.28345 621 ft 182 kts 276°
2026-04-22 15:08 23.16432 -106.29659 1434 ft 177 kts 279°
2026-04-22 15:08 23.16640 -106.30971 2168 ft 176 kts 282°
2026-04-22 15:09 23.16898 -106.32252 2833 ft 175 kts 285°
2026-04-22 15:09 23.17203 -106.33501 3458 ft 175 kts 287°
2026-04-22 15:09 23.17566 -106.34757 4081 ft 175 kts 290°
2026-04-22 15:09 23.17978 -106.35986 4688 ft 173 kts 292°
2026-04-22 15:10 23.18428 -106.37162 5273 ft 171 kts 295°
2026-04-22 15:10 23.18932 -106.38325 5836 ft 172 kts 297°
2026-04-22 15:10 23.19484 -106.39459 6428 ft 171 kts 299°
2026-04-22 15:10 23.20088 -106.40572 6995 ft 171 kts 301°
2026-04-22 15:11 23.20723 -106.41638 7501 ft 172 kts 300°
2026-04-22 15:11 23.21075 -106.42898 7793 ft 184 kts 266°
2026-04-22 15:11 23.20832 -106.44332 8134 ft 199 kts 262°
2026-04-22 15:11 23.21058 -106.45842 8400 ft 216 kts 300°
2026-04-22 15:12 23.22259 -106.46881 8691 ft 235 kts 340°
2026-04-22 15:12 23.23941 -106.46873 8921 ft 260 kts 18°
2026-04-22 15:12 23.25527 -106.45759 9217 ft 281 kts 40°
2026-04-22 15:12 23.27152 -106.44493 9576 ft 295 kts 20°
2026-04-22 15:13 23.29151 -106.44202 10119 ft 296 kts 348°
2026-04-22 15:13 23.31024 -106.45076 10638 ft 301 kts 319°
2026-04-22 15:13 23.32424 -106.46822 10990 ft 314 kts 304°
2026-04-22 15:13 23.33718 -106.48814 11411 ft 327 kts 304°
2026-04-22 15:14 23.35065 -106.50794 12061 ft 331 kts 306°
2026-04-22 15:14 23.36503 -106.52782 12793 ft 333 kts 307°
2026-04-22 15:14 23.37969 -106.54733 13523 ft 336 kts 308°
2026-04-22 15:14 23.39466 -106.56677 14205 ft 339 kts 308°
2026-04-22 15:15 23.40981 -106.58622 14831 ft 342 kts 308°
2026-04-22 15:15 23.42536 -106.60606 15508 ft 344 kts 308°
2026-04-22 15:15 23.44094 -106.62591 16162 ft 346 kts 308°
2026-04-22 15:15 23.45642 -106.64561 16809 ft 348 kts 308°
2026-04-22 15:16 23.47219 -106.66565 17460 ft 350 kts 308°
2026-04-22 15:16 23.48817 -106.68601 18064 ft 353 kts 308°
2026-04-22 15:16 23.50414 -106.70634 18663 ft 355 kts 308°
2026-04-22 15:16 23.52019 -106.72678 19261 ft 357 kts 308°
2026-04-22 15:17 23.53633 -106.74736 19808 ft 360 kts 308°
2026-04-22 15:17 23.55253 -106.76801 20341 ft 363 kts 308°
2026-04-22 15:17 23.56891 -106.78889 20887 ft 365 kts 308°
2026-04-22 15:17 23.58552 -106.81010 21434 ft 367 kts 308°
2026-04-22 15:18 23.60202 -106.83115 21966 ft 368 kts 309°
2026-04-22 15:18 23.61874 -106.85249 22470 ft 371 kts 309°
2026-04-22 15:18 23.63540 -106.87376 22967 ft 373 kts 309°
2026-04-22 15:18 23.65216 -106.89517 23483 ft 375 kts 309°
2026-04-22 15:19 23.66927 -106.91702 24020 ft 376 kts 309°
2026-04-22 15:19 23.68624 -106.93872 24522 ft 378 kts 308°
2026-04-22 15:19 23.70320 -106.96043 24997 ft 380 kts 309°
2026-04-22 15:19 23.72028 -106.98231 25464 ft 382 kts 309°
2026-04-22 15:20 23.73762 -107.00450 25932 ft 384 kts 308°
2026-04-22 15:20 23.75482 -107.02653 26401 ft 385 kts 309°
2026-04-22 15:20 23.77228 -107.04894 26852 ft 387 kts 308°
2026-04-22 15:20 23.78977 -107.07125 27293 ft 388 kts 310°
2026-04-22 15:21 23.80935 -107.09135 27701 ft 392 kts 319°
2026-04-22 15:21 23.83229 -107.10792 28131 ft 397 kts 328°
2026-04-22 15:21 23.85766 -107.12036 28532 ft 402 kts 335°
2026-04-22 15:21 23.88380 -107.13089 28913 ft 404 kts 335°
2026-04-22 15:22 23.91047 -107.14131 29273 ft 406 kts 336°
2026-04-22 15:22 23.93684 -107.15160 29626 ft 407 kts 336°
2026-04-22 15:22 23.96389 -107.16215 29965 ft 409 kts 336°
2026-04-22 15:22 23.99076 -107.17267 30287 ft 411 kts 336°
2026-04-22 15:23 24.01764 -107.18318 30632 ft 412 kts 336°
2026-04-22 15:23 24.04441 -107.19368 30917 ft 414 kts 335°
2026-04-22 15:23 24.07187 -107.20446 31197 ft 416 kts 336°
2026-04-22 15:23 24.09885 -107.21506 31527 ft 416 kts 336°
2026-04-22 15:24 24.12618 -107.22578 31959 ft 414 kts 336°
2026-04-22 15:24 24.15332 -107.23643 32404 ft 411 kts 336°
2026-04-22 15:24 24.18006 -107.24693 32789 ft 409 kts 335°
2026-04-22 15:24 24.20702 -107.25753 33155 ft 408 kts 335°
2026-04-22 15:25 24.23331 -107.26788 33525 ft 406 kts 335°
2026-04-22 15:25 24.26009 -107.27842 33916 ft 404 kts 335°
2026-04-22 15:25 24.28646 -107.28880 34311 ft 402 kts 335°
2026-04-22 15:25 24.31245 -107.29905 34646 ft 400 kts 335°
2026-04-22 15:26 24.33895 -107.30951 34913 ft 400 kts 335°
2026-04-22 15:26 24.36515 -107.31984 35161 ft 400 kts 335°
2026-04-22 15:26 24.39132 -107.33016 35421 ft 400 kts 335°
2026-04-22 15:26 24.41720 -107.34035 35627 ft 400 kts 335°
2026-04-22 15:27 24.44350 -107.35067 35843 ft 400 kts 335°
2026-04-22 15:27 24.46995 -107.36107 36009 ft 400 kts 335°
2026-04-22 15:27 24.52235 -107.38169 36015 ft 401 kts 335°
2026-04-22 15:28 24.57491 -107.40238 36020 ft 399 kts 335°
2026-04-22 15:28 24.62709 -107.42295 36020 ft 400 kts 335°
2026-04-22 15:29 24.67943 -107.44361 36023 ft 400 kts 335°
2026-04-22 15:30 24.75793 -107.47462 36026 ft 400 kts 335°
2026-04-22 15:30 24.81059 -107.49461 36025 ft 400 kts 336°
2026-04-22 15:31 24.86342 -107.51420 36026 ft 400 kts 336°
2026-04-22 15:31 24.91644 -107.53395 36026 ft 401 kts 336°
2026-04-22 15:32 24.96929 -107.55370 36027 ft 400 kts 336°
2026-04-22 15:32 25.02168 -107.57328 36025 ft 400 kts 335°
2026-04-22 15:33 25.07434 -107.59302 36029 ft 400 kts 335°
2026-04-22 15:33 25.12719 -107.61284 36028 ft 399 kts 335°
2026-04-22 15:34 25.17984 -107.63258 36035 ft 400 kts 336°
2026-04-22 15:34 25.23269 -107.65241 36033 ft 400 kts 335°
2026-04-22 15:35 25.28526 -107.67216 36043 ft 399 kts 335°
2026-04-22 15:35 25.33763 -107.69184 36039 ft 400 kts 335°
2026-04-22 15:36 25.39059 -107.71177 36040 ft 400 kts 335°
2026-04-22 15:36 25.44306 -107.73154 36043 ft 400 kts 335°
2026-04-22 15:37 25.49605 -107.75153 36050 ft 406 kts 335°
2026-04-22 15:37 25.54990 -107.77187 36054 ft 410 kts 335°
2026-04-22 15:38 25.60393 -107.79224 36055 ft 410 kts 335°
2026-04-22 15:38 25.68531 -107.82298 36065 ft 411 kts 335°
2026-04-22 15:39 25.73919 -107.84339 36083 ft 411 kts 335°
2026-04-22 15:39 25.79352 -107.86400 36080 ft 411 kts 335°
2026-04-22 15:40 25.84768 -107.88452 36107 ft 411 kts 335°
2026-04-22 15:40 25.90156 -107.90498 36107 ft 410 kts 335°
2026-04-22 15:41 25.95593 -107.92566 36110 ft 410 kts 335°
2026-04-22 15:41 26.00963 -107.94607 36114 ft 408 kts 335°
2026-04-22 15:42 26.06346 -107.96661 36103 ft 409 kts 335°
2026-04-22 15:42 26.11729 -107.98711 36126 ft 409 kts 335°
2026-04-22 15:43 26.17100 -108.00762 36148 ft 409 kts 335°
2026-04-22 15:43 26.22498 -108.02824 36166 ft 408 kts 335°
2026-04-22 15:44 26.27850 -108.04871 36178 ft 408 kts 335°
2026-04-22 15:44 26.33250 -108.06937 36175 ft 408 kts 335°
2026-04-22 15:45 26.38598 -108.08984 36171 ft 408 kts 335°
2026-04-22 15:45 26.43954 -108.11039 36173 ft 407 kts 335°
2026-04-22 15:46 26.49319 -108.13097 36177 ft 407 kts 334°
2026-04-22 15:46 26.54677 -108.15157 36181 ft 407 kts 334°
2026-04-22 15:47 26.59905 -108.17447 36175 ft 403 kts 330°
2026-04-22 15:47 26.64949 -108.20180 36171 ft 400 kts 328°
2026-04-22 15:48 26.69918 -108.22946 36162 ft 400 kts 328°
2026-04-22 15:48 26.74921 -108.25742 36137 ft 400 kts 327°
2026-04-22 15:49 26.79879 -108.28515 36125 ft 399 kts 328°
2026-04-22 15:49 26.84836 -108.31288 36120 ft 399 kts 328°
2026-04-22 15:50 26.89817 -108.34080 36118 ft 399 kts 327°
2026-04-22 15:50 26.94779 -108.36862 36117 ft 399 kts 327°
2026-04-22 15:51 26.99733 -108.39644 36123 ft 399 kts 328°
2026-04-22 15:51 27.04705 -108.42439 36130 ft 399 kts 327°
2026-04-22 15:52 27.09646 -108.45219 36139 ft 400 kts 328°
2026-04-22 15:52 27.14629 -108.48028 36148 ft 399 kts 327°
2026-04-22 15:53 27.19588 -108.50823 36153 ft 398 kts 328°
2026-04-22 15:53 27.24529 -108.53611 36167 ft 399 kts 327°
2026-04-22 15:54 27.29520 -108.56428 36176 ft 399 kts 327°
2026-04-22 15:54 27.34456 -108.59221 36172 ft 400 kts 327°
2026-04-22 15:55 27.39441 -108.62043 36170 ft 399 kts 327°
2026-04-22 15:55 27.44388 -108.64848 36175 ft 399 kts 328°
2026-04-22 15:56 27.49347 -108.67659 36184 ft 398 kts 327°
2026-04-22 15:56 27.54308 -108.70474 36189 ft 400 kts 327°
2026-04-22 15:57 27.59262 -108.73291 36181 ft 399 kts 327°
2026-04-22 15:57 27.64208 -108.76105 36171 ft 398 kts 327°
2026-04-22 15:58 27.69151 -108.78920 36165 ft 398 kts 327°
2026-04-22 15:58 27.74084 -108.81732 36154 ft 399 kts 327°
2026-04-22 15:59 27.79031 -108.84555 36149 ft 397 kts 327°
2026-04-22 15:59 27.83978 -108.87380 36177 ft 399 kts 327°
2026-04-22 16:00 27.88914 -108.90203 36202 ft 399 kts 327°
2026-04-22 16:00 27.93856 -108.93036 36236 ft 397 kts 327°
2026-04-22 16:01 27.98795 -108.95860 36260 ft 398 kts 327°
2026-04-22 16:01 28.03739 -108.98701 36276 ft 397 kts 327°
2026-04-22 16:02 28.08669 -109.01532 36276 ft 398 kts 327°
2026-04-22 16:02 28.13600 -109.04366 36263 ft 399 kts 327°
2026-04-22 16:03 28.18589 -109.07238 36256 ft 400 kts 327°
2026-04-22 16:03 28.23517 -109.10076 36241 ft 399 kts 327°
2026-04-22 16:04 28.28468 -109.12933 36232 ft 399 kts 327°
2026-04-22 16:04 28.33403 -109.15778 36222 ft 399 kts 327°
2026-04-22 16:05 28.38356 -109.18639 36213 ft 400 kts 327°
2026-04-22 16:05 28.43338 -109.21519 36215 ft 400 kts 327°
2026-04-22 16:06 28.48266 -109.24371 36210 ft 399 kts 327°
2026-04-22 16:06 28.53232 -109.27253 36210 ft 399 kts 327°
2026-04-22 16:07 28.58171 -109.30118 36196 ft 399 kts 327°
2026-04-22 16:07 28.63091 -109.32974 36184 ft 399 kts 327°
2026-04-22 16:08 28.68060 -109.35865 36169 ft 399 kts 327°
2026-04-22 16:08 28.73008 -109.38744 36164 ft 400 kts 327°
2026-04-22 16:09 28.77951 -109.41625 36153 ft 399 kts 327°
2026-04-22 16:09 28.82903 -109.44511 36148 ft 401 kts 326°
2026-04-22 16:10 28.87858 -109.47405 36150 ft 401 kts 326°
2026-04-22 16:10 28.92826 -109.50312 36159 ft 400 kts 327°
2026-04-22 16:11 28.97774 -109.53206 36163 ft 401 kts 327°
2026-04-22 16:11 29.02720 -109.56103 36167 ft 401 kts 326°
2026-04-22 16:12 29.07694 -109.59022 36165 ft 402 kts 326°
2026-04-22 16:12 29.12644 -109.61929 36161 ft 401 kts 326°
2026-04-22 16:13 29.17618 -109.64853 36149 ft 401 kts 327°
2026-04-22 16:13 29.22591 -109.67782 36140 ft 401 kts 326°
2026-04-22 16:14 29.27561 -109.70705 36125 ft 402 kts 326°
2026-04-22 16:14 29.32501 -109.73621 36129 ft 402 kts 326°
2026-04-22 16:15 29.37473 -109.76556 36142 ft 401 kts 326°
2026-04-22 16:15 29.42422 -109.79481 36157 ft 401 kts 326°
2026-04-22 16:16 29.47417 -109.82437 36173 ft 402 kts 326°
2026-04-22 16:16 29.52369 -109.85368 36188 ft 402 kts 326°
2026-04-22 16:17 29.57335 -109.88314 36184 ft 403 kts 326°
2026-04-22 16:17 29.62302 -109.91267 36181 ft 401 kts 326°
2026-04-22 16:18 29.67264 -109.94217 36178 ft 402 kts 326°
2026-04-22 16:18 29.72257 -109.97187 36183 ft 402 kts 326°
2026-04-22 16:19 29.77210 -110.00136 36183 ft 402 kts 326°
2026-04-22 16:19 29.82193 -110.03108 36184 ft 403 kts 326°
2026-04-22 16:20 29.87160 -110.06078 36180 ft 403 kts 326°
2026-04-22 16:20 29.92141 -110.09058 36180 ft 402 kts 326°
2026-04-22 16:21 29.97117 -110.12035 36175 ft 402 kts 326°
2026-04-22 16:21 30.02063 -110.15001 36172 ft 403 kts 326°
2026-04-22 16:22 30.09509 -110.19467 36182 ft 403 kts 326°
2026-04-22 16:23 30.16969 -110.23953 36159 ft 402 kts 326°
2026-04-22 16:23 30.21927 -110.26940 36165 ft 403 kts 326°
2026-04-22 16:24 30.29395 -110.31446 36180 ft 405 kts 326°
2026-04-22 16:25 30.34374 -110.34454 36184 ft 403 kts 326°
2026-04-22 16:25 30.41841 -110.38969 36194 ft 405 kts 326°
2026-04-22 16:26 30.46806 -110.41975 36201 ft 404 kts 326°
2026-04-22 16:26 30.51796 -110.45003 36207 ft 404 kts 325°
2026-04-22 16:27 30.56764 -110.48019 36222 ft 405 kts 326°
2026-04-22 16:27 30.61753 -110.51049 36233 ft 405 kts 325°
2026-04-22 16:28 30.66748 -110.54091 36227 ft 405 kts 326°
2026-04-22 16:28 30.71696 -110.57104 36231 ft 405 kts 325°
2026-04-22 16:29 30.76675 -110.60143 36238 ft 404 kts 326°
2026-04-22 16:29 30.81682 -110.63202 36234 ft 405 kts 326°
2026-04-22 16:30 30.86687 -110.66260 36237 ft 406 kts 325°
2026-04-22 16:30 30.91655 -110.69304 36233 ft 404 kts 325°
2026-04-22 16:31 30.96632 -110.72352 36234 ft 403 kts 325°
2026-04-22 16:31 31.01585 -110.75391 36244 ft 405 kts 325°
2026-04-22 16:32 31.06565 -110.78451 36242 ft 404 kts 324°
2026-04-22 16:32 31.11560 -110.81523 36229 ft 405 kts 325°
2026-04-22 16:33 31.16540 -110.84591 36227 ft 406 kts 325°
2026-04-22 16:33 31.21532 -110.87671 36212 ft 406 kts 325°
2026-04-22 16:34 31.26584 -110.90649 36213 ft 411 kts 328°
2026-04-22 16:34 31.32024 -110.92893 36199 ft 418 kts 336°
2026-04-22 16:35 31.37749 -110.94203 36196 ft 427 kts 344°
2026-04-22 16:35 31.43780 -110.94508 36183 ft 438 kts 352°
2026-04-22 16:36 31.49871 -110.94257 36182 ft 441 kts 353°
2026-04-22 16:36 31.56006 -110.93965 36166 ft 440 kts 353°
2026-04-22 16:37 31.62187 -110.93675 36169 ft 443 kts 353°
2026-04-22 16:37 31.68287 -110.93388 36169 ft 442 kts 353°
2026-04-22 16:38 31.74436 -110.93107 36155 ft 442 kts 353°
2026-04-22 16:38 31.80596 -110.92820 36159 ft 443 kts 353°
2026-04-22 16:39 31.86762 -110.92532 36145 ft 443 kts 353°
2026-04-22 16:39 31.92889 -110.92248 36140 ft 444 kts 353°
2026-04-22 16:40 31.99107 -110.91958 36136 ft 445 kts 353°
2026-04-22 16:41 32.08293 -110.91940 36131 ft 436 kts 347°
2026-04-22 16:41 32.14209 -110.92815 36116 ft 432 kts 341°
2026-04-22 16:42 32.20052 -110.94294 35634 ft 421 kts 339°
2026-04-22 16:42 32.22918 -110.95075 34683 ft 427 kts 339°
2026-04-22 16:42 32.25835 -110.95882 33476 ft 438 kts 339°
2026-04-22 16:42 32.28796 -110.96698 32259 ft 444 kts 340°
2026-04-22 16:43 32.31822 -110.97524 31028 ft 448 kts 341°
2026-04-22 16:43 32.34853 -110.98344 30141 ft 443 kts 342°
2026-04-22 16:43 32.37823 -110.99141 29525 ft 432 kts 342°
2026-04-22 16:43 32.40715 -110.99917 28977 ft 422 kts 341°
2026-04-22 16:44 32.43500 -111.00670 28479 ft 414 kts 341°
2026-04-22 16:44 32.46321 -111.01437 27978 ft 411 kts 342°
2026-04-22 16:44 32.49079 -111.02198 27498 ft 407 kts 340°
2026-04-22 16:44 32.51741 -111.03184 27011 ft 400 kts 334°
2026-04-22 16:45 32.54283 -111.04504 26533 ft 392 kts 328°
2026-04-22 16:45 32.56617 -111.06081 26063 ft 387 kts 323°
2026-04-22 16:45 32.58887 -111.07771 25588 ft 384 kts 323°
2026-04-22 16:45 32.61132 -111.09467 25120 ft 381 kts 322°
2026-04-22 16:46 32.63348 -111.11144 24658 ft 379 kts 323°
2026-04-22 16:46 32.65568 -111.12821 24167 ft 378 kts 323°
2026-04-22 16:46 32.67770 -111.14477 23691 ft 376 kts 323°
2026-04-22 16:46 32.69965 -111.16129 23213 ft 374 kts 323°
2026-04-22 16:47 32.72156 -111.17786 22749 ft 371 kts 321°
2026-04-22 16:47 32.74142 -111.19652 22579 ft 356 kts 313°
2026-04-22 16:47 32.75812 -111.21772 22236 ft 348 kts 304°
2026-04-22 16:47 32.77203 -111.24072 21766 ft 345 kts 300°
2026-04-22 16:48 32.78528 -111.26421 21331 ft 342 kts 300°
2026-04-22 16:48 32.79854 -111.28789 20909 ft 340 kts 300°
2026-04-22 16:48 32.81142 -111.31087 20484 ft 338 kts 300°
2026-04-22 16:48 32.82446 -111.33408 20057 ft 335 kts 300°
2026-04-22 16:49 32.83731 -111.35692 19642 ft 333 kts 300°
2026-04-22 16:49 32.85012 -111.37968 19211 ft 331 kts 300°
2026-04-22 16:49 32.86293 -111.40243 18759 ft 330 kts 300°
2026-04-22 16:49 32.87560 -111.42494 18315 ft 328 kts 300°
2026-04-22 16:50 32.88813 -111.44720 17922 ft 324 kts 300°
2026-04-22 16:50 32.90045 -111.46908 17775 ft 313 kts 300°
2026-04-22 16:50 32.91267 -111.48999 17663 ft 301 kts 302°
2026-04-22 16:50 32.92547 -111.50952 17304 ft 300 kts 304°
2026-04-22 16:51 32.93837 -111.52880 16929 ft 298 kts 304°
2026-04-22 16:51 32.95121 -111.54797 16556 ft 297 kts 304°
2026-04-22 16:51 32.96411 -111.56725 16174 ft 295 kts 304°
2026-04-22 16:51 32.97682 -111.58623 15800 ft 294 kts 304°
2026-04-22 16:52 32.98957 -111.60530 15441 ft 293 kts 304°
2026-04-22 16:52 33.00211 -111.62405 15062 ft 292 kts 304°
2026-04-22 16:52 33.01481 -111.64305 14682 ft 291 kts 304°
2026-04-22 16:52 33.02738 -111.66188 14312 ft 289 kts 304°
2026-04-22 16:53 33.03976 -111.68044 13946 ft 288 kts 304°
2026-04-22 16:53 33.05219 -111.69910 13576 ft 287 kts 304°
2026-04-22 16:53 33.06453 -111.71760 13216 ft 286 kts 304°
2026-04-22 16:53 33.07695 -111.73624 12852 ft 285 kts 304°
2026-04-22 16:54 33.08927 -111.75472 12485 ft 284 kts 304°
2026-04-22 16:54 33.10140 -111.77295 12122 ft 283 kts 304°
2026-04-22 16:54 33.11366 -111.79138 11752 ft 283 kts 304°
2026-04-22 16:54 33.12585 -111.80972 11387 ft 282 kts 304°
2026-04-22 16:55 33.13794 -111.82790 11028 ft 281 kts 304°
2026-04-22 16:55 33.15004 -111.84611 10667 ft 280 kts 304°
2026-04-22 16:55 33.16217 -111.86436 10308 ft 278 kts 304°
2026-04-22 16:55 33.17406 -111.88229 9954 ft 277 kts 304°
2026-04-22 16:56 33.18600 -111.90028 9599 ft 276 kts 304°
2026-04-22 16:56 33.19797 -111.91833 9246 ft 275 kts 304°
2026-04-22 16:56 33.20971 -111.93606 8926 ft 272 kts 304°
2026-04-22 16:56 33.22134 -111.95361 8739 ft 263 kts 304°
2026-04-22 16:57 33.23245 -111.97031 8632 ft 252 kts 304°
2026-04-22 16:57 33.24324 -111.98657 8401 ft 248 kts 304°
2026-04-22 16:57 33.25385 -112.00259 8081 ft 248 kts 304°
2026-04-22 16:57 33.26445 -112.01862 7775 ft 247 kts 304°
2026-04-22 16:58 33.27154 -112.02934 7573 ft 246 kts 305°
2026-04-22 16:58 33.28564 -112.05064 7178 ft 244 kts 305°
2026-04-22 16:58 33.29606 -112.06634 7068 ft 233 kts 305°
2026-04-22 16:58 33.30508 -112.08196 7063 ft 226 kts 297°
2026-04-22 16:59 33.31212 -112.09851 7072 ft 225 kts 292°
2026-04-22 16:59 33.31864 -112.11546 7072 ft 225 kts 291°
2026-04-22 16:59 33.32515 -112.13255 7073 ft 224 kts 291°
2026-04-22 16:59 33.33161 -112.14945 7073 ft 224 kts 291°
2026-04-22 17:00 33.33796 -112.16620 7132 ft 213 kts 288°
2026-04-22 17:00 33.34220 -112.19723 7055 ft 170 kts 267°
2026-04-22 17:00 33.34218 -112.21049 7072 ft 158 kts 266°
2026-04-22 17:01 33.34349 -112.22345 6973 ft 158 kts 292°
2026-04-22 17:01 33.35189 -112.23192 6583 ft 167 kts 333°
2026-04-22 17:01 33.36272 -112.23734 6180 ft 169 kts 333°
2026-04-22 17:01 33.37338 -112.24314 5808 ft 169 kts 331°
2026-04-22 17:02 33.38386 -112.24932 5551 ft 165 kts 330°
2026-04-22 17:02 33.39406 -112.25558 5470 ft 166 kts 330°
2026-04-22 17:02 33.40440 -112.26205 5402 ft 167 kts 329°
2026-04-22 17:02 33.41470 -112.26840 5276 ft 167 kts 335°
2026-04-22 17:03 33.42616 -112.26971 5102 ft 170 kts 12°
2026-04-22 17:03 33.43639 -112.26276 4923 ft 172 kts 48°
2026-04-22 17:03 33.44158 -112.25022 4648 ft 167 kts 84°
2026-04-22 17:03 33.44194 -112.23656 4413 ft 165 kts 95°
2026-04-22 17:04 33.44146 -112.22294 4186 ft 164 kts 95°
2026-04-22 17:04 33.44103 -112.20935 3977 ft 163 kts 94°
2026-04-22 17:04 33.44080 -112.19572 3773 ft 160 kts 93°
2026-04-22 17:04 33.44072 -112.18293 3545 ft 149 kts 92°
2026-04-22 17:05 33.44070 -112.17062 3363 ft 149 kts 92°
2026-04-22 17:05 33.44072 -112.15818 3180 ft 148 kts 92°
2026-04-22 17:05 33.44073 -112.14600 3000 ft 147 kts 92°
2026-04-22 17:05 33.44075 -112.13368 2815 ft 147 kts 92°
2026-04-22 17:06 33.44076 -112.12158 2628 ft 146 kts 92°
2026-04-22 17:06 33.44078 -112.10953 2440 ft 145 kts 92°
2026-04-22 17:06 33.44078 -112.09754 2252 ft 144 kts 92°
2026-04-22 17:06 33.44079 -112.08550 2062 ft 143 kts 92°
2026-04-22 17:07 33.44079 -112.07362 1877 ft 143 kts 92°
2026-04-22 17:07 33.44080 -112.06175 1695 ft 143 kts 91°
2026-04-22 17:07 33.44080 -112.04991 1513 ft 142 kts 91°
2026-04-22 17:07 33.44080 -112.03807 1331 ft 142 kts 91°
2026-04-22 17:08 33.44080 -112.02643 1153 ft 141 kts 91°
2026-04-22 17:08 33.44081 -112.01547 1130 ft 111 kts 88°
2026-04-22 17:08 33.44084 -112.00823 1134 ft 62 kts 91°
2026-04-22 17:08 33.44037 -112.00466 1135 ft 33 kts 126°
2026-04-22 17:09 33.43916 -112.00332 1136 ft 20 kts 108°
2026-04-22 17:09 33.43879 -112.00210 1136 ft 10 kts 157°
2026-04-22 17:09 33.43843 -112.00201 1136 ft 0 kts 173°